This is the latest recevied weather packets stored in our database for station/object N6HGA-1. If no packets are shown the sender has not sent any weather packets the latest 1 day(s).
| Time | Temp. | Humidity | Pressure | Rain* | Wind** | Luminosity | Snow |
|---|---|---|---|---|---|---|---|
| 1778115371 | 27.78° C | 36% | - | 0 mm | - | - | - |
| 1778115071 | 27.22° C | 33% | - | 0 mm | - | - | - |
| 1778114765 | 27.22° C | 31% | - | 0 mm | - | - | - |
| 1778114465 | 26.67° C | 27% | - | 0 mm | - | - | - |
| 1778114165 | 26.67° C | 27% | - | 0 mm | - | - | - |
| 1778113255 | 26.67° C | 26% | - | 0 mm | - | - | - |
| 1778111138 | 26.67° C | 27% | - | 0 mm | - | - | - |
| 1778110837 | 26.67° C | 28% | - | 0 mm | - | - | - |
| 1778106612 | 26.11° C | 31% | - | 0 mm | - | - | - |
| 1778106312 | 26.11° C | 31% | - | 0 mm | - | - | - |
| 1778105409 | 26.11° C | 30% | - | 0 mm | - | - | - |
| 1778103287 | 25.56° C | 34% | - | 0 mm | - | - | - |
| 1778102383 | 26.11° C | 34% | - | 0 mm | - | - | - |
| 1778101782 | 25.56° C | 35% | - | 0 mm | - | - | - |
| 1778101178 | 25° C | 35% | - | 0 mm | - | - | - |
| 1778100869 | 25° C | 35% | - | 0 mm | - | - | - |
| 1778100264 | 25° C | 36% | - | 0 mm | - | - | - |
| 1778099362 | 25.56° C | 34% | - | 0 mm | - | - | - |
| 1778098752 | 25° C | 36% | - | 0 mm | - | - | - |
| 1778096945 | 24.44° C | 37% | - | 0 mm | - | - | - |
| 1778095738 | 23.33° C | 58% | - | 0 mm | - | - | - |
| 1778094220 | 22.22° C | 60% | - | 0 mm | - | - | - |
| 1778093314 | 22.22° C | 61% | - | 0 mm | - | - | - |
| 1778092412 | 21.11° C | 63% | - | 0 mm | - | - | - |
| 1778091511 | 20.56° C | 55% | - | 0 mm | - | - | - |
* Rain since midnight (hover to see other rain measurements)
** Current wind speed in m/s (hover to see current wind gust speed)